星链-34885 (STARLINK-34885)

导读

STARLINK-34885是美国SpaceX星链星座的卫星,于2025年8月27日发射。星链计划旨在搭建全球卫星互联网,为偏远地区及地面网络覆盖不足区域提供高速网络服务。该卫星延续了星链批量部署的思路,进一步扩充星座组网规模,助力星链完成全球通信覆盖布局。

Basic Information
目录编号:
65328
目录名称:
STARLINK-34885
国际标识:
2025-189F
轨道中心:
EARTH
卫星名称:
星链-34885
卫星全名:
星链-34885 (STARLINK-34885)
卫星状态:
在轨 (已飞行373 天)
发射日期:
2025-08-27 UTC
国别 :
美国 (US)
星等 :
--
Orbit Information
数据来源 国际轨道数据
星历时间: 2026-09-04T04:00:02+0800
7小时前
查看轨道信息
半长轴: 6848.863km
偏心率: 0.0001389
轨道倾角: 53.159°
近地点辐角 86.082°
升交点赤经 97.940°
平近点角 157.066°
近地点: 469.774km
远地点: 471.678km
周期: 94.013分钟
每日圈数: 15.31705
Detailed Information
固有亮度:
5
最大亮度:
2.5
卫星平台:
Starlink V1.0
覆盖范围:
全球
运营商:
太空探索技术公司
运营商所在国:
美国
制造商(研发单位):
太空探索技术公司
制造商所在国:
美国
使用方式:
暂无
Satellite Introduction
Starlink 计划是 SpaceX 推出的全球卫星互联网项目,通过发射低轨道卫星,为全球尤其是偏远地区提供高速、低延迟的互联网服务。自 2019 年起,Starlink 已部署数千颗卫星,旨在缩小全球数字鸿沟,推动互联网普及。该项目还为军事、航空等行业提供通信支持,带来广泛经济效益。
2D Orbit Map
3D Orbit Map
Orbit Altitude Analysis Chart
Orbit Inclination Analysis Chart
Orbit Comprehensive Analysis Chart
View Comprehensive Chart
Conjunction Data List
Event ID Objects TCA Miss Dist (km) Collision Risk Probability Collision Risk Index (CRI) Action
CDM_260907-062506-532806-533321
2026-09-07T
06:25:36+0000
0.808 km
远距离
5.11148E-6 低风险 0.49
CDM_260905-165905-308206-532821
2026-09-05T
16:59:22+0000
1.390 km
极远距离
4.916204E-6 低风险 0.49
CDM_260905-001406-266306-532821
2026-09-05T
00:14:26+0000
2.159 km
极远距离
2.211502E-6 低风险 0.42
CDM_260830-213706-532806-970921
2026-08-30T
21:37:39+0000
2.740 km
极远距离
1.501467E-6 低风险 0.39
CDM_260904-122205-319306-532821
2026-09-04T
12:22:26+0000
2.844 km
极远距离
1.410661E-6 低风险 0.38
CDM_260904-191606-532806-767021
2026-09-04T
19:16:01+0000
2.890 km
极远距离
1.39981E-6 低风险 0.38
CDM_260903-045906-532806-772621
2026-09-03T
04:59:23+0000
2.973 km
极远距离
1.344669E-6 低风险 0.38
CDM_260904-210805-511006-532821
2026-09-04T
21:08:33+0000
2.810 km
极远距离
1.32655E-6 低风险 0.37
CDM_260904-091706-532806-553721
2026-09-04T
09:17:42+0000
2.956 km
极远距离
1.32437E-6 低风险 0.37
CDM_260903-202406-532806-889721
2026-09-03T
20:24:31+0000
2.788 km
极远距离
8.868861E-7 极低风险 0.34